Monroe, MI

1:33 AM EST on February 09, 2016 (GMT -0500)
Custer

Weather History for KTTF - March, 2015

Change the Weather History Date:

Thursday, March 12, 2015

  Actual Average Record
Temperature  
Mean Temperature 35 °F -  
Max Temperature 42 °F 41 °F 66 °F (2006)
Min Temperature 28 °F 26 °F 0 °F (1948)
Degree Days  
Heating Degree Days 30    
Moisture  
Dew Point 21 °F    
Average Humidity 59    
Maximum Humidity 86    
Minimum Humidity 27    
Precipitation  
Precipitation 0.00 in - - ()
Sea Level Pressure  
Sea Level Pressure 30.53 in    
Wind  
Wind Speed 3 mph (East)    
Max Wind Speed 12 mph    
Max Gust Speed 18 mph    
Visibility 10 miles    
Events      
Averages and records for this station are not official NWS values.
T = Trace of Precipitation, MM = Missing Value Source: NWS Daily Summary

Daily Weather History Graph

Daily Weather History Graph

Search for Another Location

Airport or City:

Trip Planner

Search our weather history database for the weather conditions in past years. The results will help you decide how hot, cold, wet, or windy it might be!

Date:

Astronomy

Mar. 12, 2015 Rise Set
Actual Time 7:51 AM EDT 7:36 PM EDT
Civil Twilight 7:23 AM EDT 8:04 PM EDT
Nautical Twilight 6:50 AM EDT 8:36 PM EDT
Astronomical Twilight 6:18 AM EDT 9:09 PM EDT
Moon 1:26 AM EDT (3/12) 11:38 AM EDT (3/12)
Length of Visible Light 12h 41m
Length of Day
11h 45m
Waning Gibbous, 61% of the Moon is Illuminated
Mar 12
Waning Gibbous
Mar 13
Last Quarter
Mar 20
New
Mar 27
First Quarter
Apr 4
Full

Hourly Weather History & Observations

Time (EDT) Temp. Windchill Dew Point Humidity Pressure Visibility Wind Dir Wind Speed Gust Speed Precip Events Conditions
12:15 AM 30.2 °F - 26.6 °F 86% 30.40 in 10.0 mi Calm Calm - N/A   Clear
12:26 AM 30.2 °F - 26.6 °F 86% 30.41 in 10.0 mi Calm Calm - N/A   Clear
12:35 AM 30.2 °F - 26.6 °F 86% 30.41 in 10.0 mi Calm Calm - N/A   Clear
12:44 AM 30.2 °F - 26.6 °F 86% 30.42 in 10.0 mi Calm Calm - N/A   Clear
1:15 AM 30.2 °F - 24.8 °F 80% 30.43 in 10.0 mi Calm Calm - N/A   Clear
1:25 AM 30.2 °F - 26.6 °F 86% 30.43 in 10.0 mi Calm Calm - N/A   Clear
1:50 AM 33.8 °F - 26.6 °F 75% 30.44 in 10.0 mi Calm Calm - N/A   Clear
1:57 AM 33.8 °F - 24.8 °F 70% 30.44 in 10.0 mi Calm Calm - N/A   Clear
2:32 AM 37.4 °F - 24.8 °F 60% 30.45 in 10.0 mi Calm Calm - N/A   Clear
2:50 AM 33.8 °F - 24.8 °F 70% 30.46 in 10.0 mi Calm Calm - N/A   Clear
3:12 AM 30.2 °F - 24.8 °F 80% 30.47 in 10.0 mi Calm Calm - N/A   Clear
3:32 AM 33.8 °F - 24.8 °F 70% 30.47 in 10.0 mi Calm Calm - N/A   Clear
3:52 AM 32.0 °F - 24.8 °F 75% 30.49 in 10.0 mi Calm Calm - N/A   Clear
4:12 AM 33.8 °F 29.6 °F 24.8 °F 70% 30.48 in 10.0 mi North 4.6 mph - N/A   Clear
4:33 AM 33.8 °F 28.6 °F 24.8 °F 70% 30.49 in 10.0 mi NNE 5.8 mph - N/A   Clear
4:53 AM 35.6 °F 29.9 °F 21.2 °F 56% 30.49 in 10.0 mi NE 6.9 mph - N/A   Clear
5:13 AM 35.6 °F - 21.2 °F 56% 30.50 in 10.0 mi Calm Calm - N/A   Clear
5:33 AM 35.6 °F - 19.4 °F 52% 30.50 in 10.0 mi Calm Calm - N/A   Clear
5:53 AM 33.8 °F 28.6 °F 19.4 °F 56% 30.51 in 10.0 mi NE 5.8 mph - N/A   Clear
6:13 AM 33.8 °F 30.8 °F 17.6 °F 52% 30.52 in 10.0 mi NE 3.5 mph - N/A   Clear
6:33 AM 33.8 °F - 17.6 °F 52% 30.53 in 10.0 mi Calm Calm - N/A   Clear
6:53 AM 30.2 °F - 19.4 °F 64% 30.54 in 10.0 mi Calm Calm - N/A   Clear
7:13 AM 28.4 °F - 21.2 °F 74% 30.55 in 10.0 mi Calm Calm - N/A   Clear
7:33 AM 28.4 °F - 21.2 °F 74% 30.54 in 10.0 mi Calm Calm - N/A   Clear
7:53 AM 28.4 °F - 19.4 °F 69% 30.55 in 10.0 mi Calm Calm - N/A   Clear
8:14 AM 30.2 °F - 21.2 °F 69% 30.55 in 10.0 mi Calm Calm - N/A   Clear
8:34 AM 30.2 °F - 21.2 °F 69% 30.56 in 10.0 mi Calm Calm - N/A   Clear
8:54 AM 32.0 °F 28.7 °F 24.8 °F 75% 30.56 in 10.0 mi ESE 3.5 mph - N/A   Clear
9:14 AM 33.8 °F - 24.8 °F 70% 30.57 in 10.0 mi Calm Calm - N/A   Clear
9:34 AM 33.8 °F 28.6 °F 24.8 °F 70% 30.56 in 10.0 mi ESE 5.8 mph - N/A   Clear
9:55 AM 35.6 °F 32.8 °F 23.0 °F 60% 30.58 in 10.0 mi East 3.5 mph - N/A   Clear
10:07 AM 35.6 °F 28.6 °F 21.2 °F 56% 30.58 in 10.0 mi East 9.2 mph - N/A   Clear
10:13 AM 35.6 °F 29.2 °F 21.2 °F 56% 30.58 in 10.0 mi East 8.1 mph - N/A   Clear
10:34 AM 35.6 °F 28.6 °F 21.2 °F 56% 30.58 in 10.0 mi ENE 9.2 mph - N/A   Clear
10:54 AM 37.4 °F 30.3 °F 21.2 °F 52% 30.59 in 10.0 mi ENE 10.4 mph - N/A   Clear
11:14 AM 37.4 °F 31.4 °F 21.2 °F 52% 30.59 in 10.0 mi East 8.1 mph - N/A   Clear
11:35 AM 39.2 °F 33.0 °F 21.2 °F 49% 30.60 in 10.0 mi East 9.2 mph - N/A   Clear
11:44 AM 39.2 °F 32.5 °F 19.4 °F 45% 30.59 in 10.0 mi East 10.4 mph - N/A   Clear
11:55 AM 39.2 °F 33.0 °F 19.4 °F 45% 30.60 in 10.0 mi ENE 9.2 mph - N/A   Clear
12:03 PM 39.2 °F 32.5 °F 17.6 °F 42% 30.60 in 10.0 mi East 10.4 mph - N/A   Clear
12:35 PM 39.2 °F 32.5 °F 19.4 °F 45% 30.61 in 10.0 mi East 10.4 mph - N/A   Clear
12:49 PM 39.2 °F 32.5 °F 21.2 °F 49% 30.62 in 10.0 mi ESE 10.4 mph - N/A   Clear
1:08 PM 39.2 °F 33.0 °F 21.2 °F 49% 30.62 in 10.0 mi ESE 9.2 mph - N/A   Clear
1:35 PM 37.4 °F 31.4 °F 23.0 °F 56% 30.62 in 10.0 mi SE 8.1 mph - N/A   Clear
1:55 PM 39.2 °F 34.2 °F 23.0 °F 52% 30.61 in 10.0 mi ESE 6.9 mph - N/A   Clear
2:15 PM 39.2 °F 33.6 °F 23.0 °F 52% 30.61 in 10.0 mi ESE 8.1 mph - N/A   Clear
2:35 PM 39.2 °F 37.0 °F 23.0 °F 52% 30.60 in 10.0 mi ESE 3.5 mph - N/A   Clear
2:53 PM 39.2 °F 33.6 °F 21.2 °F 49% 30.60 in 10.0 mi SE 8.1 mph - N/A   Clear
3:16 PM 39.2 °F 35.0 °F 23.0 °F 52% 30.59 in 10.0 mi ESE 5.8 mph - N/A   Clear
3:36 PM 39.2 °F 34.2 °F 21.2 °F 49% 30.59 in 10.0 mi ESE 6.9 mph - N/A   Clear
3:56 PM 39.2 °F 35.9 °F 19.4 °F 45% 30.58 in 10.0 mi ESE 4.6 mph - N/A   Clear
4:16 PM 42.8 °F 39.3 °F 17.6 °F 36% 30.56 in 10.0 mi East 5.8 mph - N/A   Clear
4:26 PM 42.8 °F 37.5 °F 15.8 °F 34% 30.56 in 10.0 mi East 9.2 mph - N/A   Clear
4:55 PM 41.0 °F 36.4 °F 17.6 °F 39% 30.55 in 10.0 mi East 6.9 mph - N/A   Clear
5:35 PM 41.0 °F 35.2 °F 12.2 °F 31% 30.54 in 10.0 mi East 9.2 mph - N/A   Clear
5:39 PM 42.8 °F 38.0 °F 12.2 °F 29% 30.54 in 10.0 mi East 8.1 mph - N/A   Clear
5:56 PM 42.8 °F 37.0 °F 10.4 °F 27% 30.54 in 10.0 mi East 10.4 mph - N/A   Clear
6:11 PM 41.0 °F 37.1 °F 10.4 °F 29% 30.54 in 10.0 mi East 5.8 mph - N/A   Clear
6:31 PM 41.0 °F 36.4 °F 10.4 °F 29% 30.54 in 10.0 mi East 6.9 mph - N/A   Clear
6:52 PM 39.2 °F 34.2 °F 12.2 °F 33% 30.54 in 10.0 mi East 6.9 mph - N/A   Clear
7:12 PM 39.2 °F 35.0 °F 19.4 °F 45% 30.54 in 10.0 mi East 5.8 mph - N/A   Clear
7:25 PM 37.4 °F 31.4 °F 21.2 °F 52% 30.54 in 10.0 mi East 8.1 mph - N/A   Clear
7:52 PM 35.6 °F - 23.0 °F 60% 30.53 in 10.0 mi Calm Calm - N/A   Clear
8:12 PM 33.8 °F - 24.8 °F 70% 30.54 in 10.0 mi Calm Calm - N/A   Clear
8:32 PM 33.8 °F 29.6 °F 24.8 °F 70% 30.53 in 10.0 mi East 4.6 mph - N/A   Clear
8:47 PM 33.8 °F 28.6 °F 24.8 °F 70% 30.53 in 10.0 mi East 5.8 mph - N/A   Clear
9:13 PM 32.0 °F 28.7 °F 24.8 °F 75% 30.52 in 10.0 mi ESE 3.5 mph - N/A   Clear
9:33 PM 32.0 °F 25.6 °F 21.2 °F 64% 30.52 in 10.0 mi East 6.9 mph - N/A   Clear
9:52 PM 32.0 °F 24.8 °F 19.4 °F 60% 30.51 in 10.0 mi East 8.1 mph - N/A   Clear
10:13 PM 30.2 °F 21.9 °F 21.2 °F 69% 30.50 in 10.0 mi East 9.2 mph - N/A   Clear
10:33 PM 30.2 °F 21.3 °F 21.2 °F 69% 30.50 in 10.0 mi East 10.4 mph - N/A   Clear
10:53 PM 30.2 °F 21.3 °F 21.2 °F 69% 30.49 in 10.0 mi East 10.4 mph - N/A   Clear
11:13 PM 30.2 °F 20.8 °F 19.4 °F 64% 30.48 in 10.0 mi East 11.5 mph 16.1 mph N/A   Clear
11:31 PM 30.2 °F 21.9 °F 19.4 °F 64% 30.47 in 10.0 mi East 9.2 mph - N/A   Clear
11:53 PM 30.2 °F 21.3 °F 17.6 °F 60% 30.47 in 10.0 mi East 10.4 mph 18.4 mph N/A   Clear